| time (UTC) | temp F | wind direction | speed MPH | gust MPH | rain 1hr in | rain 24hr in | rain mn in | humidity % | barometer mb |
| 20260903183028 | 87 | 28 | 0.0 | 3.0 | 0.00 | 0.27 | 0.27 | 76 | 1011.9 |
| 20260903181539 | 91 | 28 | 1.0 | 5.0 | 0.00 | 0.27 | 0.27 | 71 | 1011.9 |
| 20260903180027 | 90 | 28 | 0.0 | 3.0 | 0.00 | 0.27 | 0.27 | 70 | 1012.2 |
| 20260903174522 | 89 | 28 | 0.0 | 2.0 | 0.00 | 0.27 | 0.27 | 71 | 1012.2 |
| 20260903173020 | 90 | 28 | 0.0 | 3.0 | 0.00 | 0.27 | 0.27 | 71 | 1012.4 |
| 20260903171528 | 88 | 28 | 0.0 | 2.0 | 0.01 | 0.27 | 0.27 | 77 | 1012.6 |
| 20260903170017 | 87 | 27 | 0.0 | 3.0 | 0.01 | 0.27 | 0.27 | 79 | 1012.6 |
| 20260903164514 | 88 | 28 | 1.0 | 4.0 | 0.01 | 0.27 | 0.27 | 76 | 1012.7 |
| 20260903163013 | 86 | 28 | 0.0 | 2.0 | 0.01 | 0.27 | 0.27 | 80 | 1012.9 |
| 20260903161506 | 85 | 28 | 0.0 | 4.0 | 0.00 | 0.26 | 0.26 | 81 | 1012.9 |
| 20260903160006 | 83 | 27 | 0.0 | 3.0 | 0.00 | 0.26 | 0.26 | 85 | 1012.8 |
| 20260903154602 | 83 | 28 | 0.0 | 3.0 | 0.00 | 0.26 | 0.26 | 86 | 1012.6 |
| 20260903153056 | 80 | 28 | 0.0 | 1.0 | 0.00 | 0.26 | 0.26 | 92 | 1012.5 |
| 20260903151556 | 79 | 28 | 0.0 | 0.0 | 0.00 | 0.26 | 0.26 | 93 | 1012.7 |
| 20260903150114 | 78 | 28 | 0.0 | 1.0 | 0.00 | 0.26 | 0.26 | 93 | 1012.5 |
| 20260903144554 | 78 | 28 | 0.0 | 0.0 | 0.00 | 0.26 | 0.26 | 94 | 1012.5 |
| 20260903143051 | 78 | 28 | 0.0 | 1.0 | 0.00 | 0.26 | 0.26 | 94 | 1012.5 |
| 20260903141555 | 77 | 28 | 0.0 | 2.0 | 0.00 | 0.26 | 0.26 | 95 | 1012.7 |
| 20260903140050 | 76 | 28 | 0.0 | 2.0 | 0.00 | 0.26 | 0.26 | 96 | 1012.7 |
| 20260903134549 | 75 | 28 | 0.0 | 2.0 | 0.00 | 0.26 | 0.26 | 96 | 1012.8 |
| 20260903133044 | 75 | 28 | 0.0 | 2.0 | 0.00 | 0.26 | 0.26 | 96 | 1012.5 |
| 20260903131543 | 75 | 28 | 0.0 | 2.0 | 0.00 | 0.26 | 0.26 | 97 | 1012.5 |
| 20260903130043 | 75 | 28 | 0.0 | 2.0 | 0.00 | 0.26 | 0.26 | 97 | 1012.6 |
| 20260903124544 | 74 | 28 | 0.0 | 2.0 | 0.00 | 0.26 | 0.26 | 97 | 1012.5 |
| 20260903123040 | 74 | 28 | 0.0 | 3.0 | 0.00 | 0.26 | 0.26 | 96 | 1012.5 |
| 20260903121542 | 74 | 28 | 0.0 | 1.0 | 0.00 | 0.26 | 0.26 | 96 | 1012.4 |
| 20260903120042 | 74 | 28 | 0.0 | 2.0 | 0.00 | 0.26 | 0.26 | 97 | 1012.4 |
| 20260903114544 | 75 | 28 | 0.0 | 0.0 | 0.00 | 0.26 | 0.26 | 96 | 1012.5 |
| 20260903113039 | 75 | 28 | 0.0 | 0.0 | 0.00 | 0.26 | 0.26 | 96 | 1012.4 |
| 20260903111536 | 75 | 28 | 0.0 | 0.0 | 0.00 | 0.26 | 0.26 | 96 | 1012.2 |
| 20260903110033 | 75 | 28 | 0.0 | 0.0 | 0.00 | 0.26 | 0.26 | 96 | 1011.8 |
| 20260903104531 | 75 | 28 | 0.0 | 0.0 | 0.01 | 0.26 | 0.26 | 96 | 1011.6 |
| 20260903103134 | 75 | 28 | 0.0 | 0.0 | 0.03 | 0.26 | 0.26 | 96 | 1011.7 |
| 20260903101541 | 75 | 28 | 0.0 | 1.0 | 0.03 | 0.26 | 0.26 | 96 | 1011.7 |
| 20260903100033 | 74 | 28 | 0.0 | 1.0 | 0.03 | 0.26 | 0.26 | 96 | 1011.6 |
| 20260903094527 | 74 | 28 | 0.0 | 2.0 | 0.02 | 0.25 | 0.25 | 96 | 1011.8 |
| 20260903093054 | 74 | 28 | 0.0 | 3.0 | 0.00 | 0.23 | 0.23 | 95 | 1011.9 |
| 20260903091526 | 74 | 28 | 0.0 | 2.0 | 0.01 | 0.23 | 0.23 | 95 | 1011.7 |
| 20260903090015 | 74 | 28 | 0.0 | 2.0 | 0.01 | 0.23 | 0.23 | 95 | 1011.7 |
| 20260903084515 | 74 | 28 | 0.0 | 2.0 | 0.04 | 0.23 | 0.23 | 95 | 1011.3 |
| 20260903083013 | 75 | 28 | 0.0 | 2.0 | 0.09 | 0.23 | 0.23 | 95 | 1011.3 |
| 20260903081524 | 75 | 28 | 0.0 | 2.0 | 0.09 | 0.22 | 0.22 | 95 | 1011.2 |
| 20260903080010 | 76 | 28 | 0.0 | 2.0 | 0.15 | 0.22 | 0.22 | 95 | 1011.1 |
| 20260903074509 | 76 | 28 | 0.0 | 3.0 | 0.21 | 0.21 | 0.21 | 94 | 1011.3 |
| 20260903073008 | 76 | 28 | 1.0 | 3.0 | 0.14 | 0.14 | 0.14 | 94 | 1011.5 |
| 20260903071507 | 76 | 28 | 0.0 | 0.0 | 0.13 | 0.13 | 0.13 | 93 | 1011.7 |
| 20260903070008 | 77 | 28 | 1.0 | 5.0 | 0.09 | 0.09 | 0.09 | 91 | 1012.0 |
| 20260903064505 | 79 | 28 | 1.0 | 5.0 | 0.01 | 0.01 | 0.01 | 89 | 1011.9 |
| 20260903063000 | 80 | 27 | 0.0 | 8.0 | 0.00 | 0.00 | 0.00 | 84 | 1011.5 |
| 20260903061608 | 80 | 27 | 0.0 | 5.0 | 0.00 | 0.00 | 0.00 | 84 | 1011.5 |
| 20260903060039 | 80 | 27 | 1.0 | 5.0 | 0.00 | 0.00 | 0.00 | 83 | 1011.4 |
| 20260903054543 | 80 | 27 | 0.0 | 10.0 | 0.00 | 0.00 | 0.00 | 83 | 1011.3 |
| 20260903053004 | 81 | 27 | 2.0 | 6.0 | 0.00 | 0.00 | 0.00 | 84 | 1011.1 |
| 20260903051504 | 81 | 27 | 1.0 | 4.0 | 0.00 | 0.00 | 0.00 | 84 | 1011.0 |
| 20260903050001 | 81 | 27 | 1.0 | 6.0 | 0.00 | 0.00 | 0.00 | 84 | 1010.9 |
| 20260903044604 | 81 | 26 | 0.0 | 6.0 | 0.00 | 0.00 | 0.00 | 84 | 1011.1 |
| 20260903043056 | 81 | 27 | 0.0 | 5.0 | 0.00 | 0.00 | 0.00 | 84 | 1011.2 |
| 20260903041606 | 81 | 26 | 1.0 | 8.0 | 0.00 | 0.00 | 0.00 | 84 | 1011.1 |
| 20260903040058 | 81 | 26 | 0.0 | 3.0 | 0.00 | 0.00 | 0.00 | 84 | 1011.2 |
| 20260903034556 | 81 | 26 | 0.0 | 5.0 | 0.00 | 0.00 | 0.00 | 84 | 1011.2 |
| 20260903033049 | 81 | 26 | 1.0 | 6.0 | 0.00 | 0.00 | 0.00 | 83 | 1011.1 |
| 20260903031549 | 81 | 26 | 1.0 | 5.0 | 0.00 | 0.00 | 0.00 | 82 | 1010.9 |
| 20260903030047 | 81 | 26 | 0.0 | 3.0 | 0.00 | 0.00 | 0.00 | 82 | 1011.1 |
| 20260903024546 | 81 | 26 | 0.0 | 6.0 | 0.00 | 0.00 | 0.00 | 81 | 1010.9 |
| 20260903023048 | 80 | 26 | 0.0 | 8.0 | 0.00 | 0.00 | 0.00 | 81 | 1010.9 |
| 20260903021548 | 81 | 26 | 0.0 | 5.0 | 0.00 | 0.00 | 0.00 | 81 | 1010.7 |
| 20260903020042 | 81 | 26 | 0.0 | 2.0 | 0.00 | 0.00 | 0.00 | 82 | 1010.5 |
| 20260903014547 | 81 | 26 | 1.0 | 9.0 | 0.00 | 0.00 | 0.00 | 81 | 1010.4 |
| 20260903013045 | 82 | 9 | 0.0 | 3.0 | 0.00 | 0.00 | 0.00 | 79 | 1010.1 |
| 20260903011542 | 82 | 9 | 1.0 | 5.0 | 0.00 | 0.00 | 0.00 | 78 | 1010.0 |
| 20260903010040 | 83 | 9 | 1.0 | 5.0 | 0.00 | 0.00 | 0.00 | 77 | 1010.1 |
| 20260903004548 | 83 | 9 | 0.0 | 6.0 | 0.00 | 0.00 | 0.00 | 76 | 1010.0 |
| 20260903003037 | 84 | 19 | 2.0 | 9.0 | 0.00 | 0.00 | 0.00 | 75 | 1010.1 |
| 20260903001536 | 85 | 19 | 0.0 | 8.0 | 0.00 | 0.00 | 0.00 | 74 | 1009.9 |
| 20260903000044 | 86 | 19 | 2.0 | 10.0 | 0.00 | 0.00 | 0.00 | 71 | 1009.8 |
| 20260902234534 | 87 | 19 | 1.0 | 6.0 | 0.00 | 0.00 | 0.00 | 69 | 1009.9 |
| 20260902233034 | 87 | 19 | 1.0 | 8.0 | 0.00 | 0.00 | 0.00 | 68 | 1009.9 |
| 20260902231540 | 88 | 19 | 2.0 | 6.0 | 0.00 | 0.00 | 0.00 | 66 | 1009.9 |
| 20260902230026 | 89 | 19 | 0.0 | 11.0 | 0.00 | 0.00 | 0.00 | 64 | 1009.5 |
| 20260902224525 | 90 | 21 | 0.0 | 4.0 | 0.00 | 0.00 | 0.00 | 62 | 1009.5 |
| 20260902223124 | 92 | 21 | 1.0 | 6.0 | 0.00 | 0.00 | 0.00 | 60 | 1009.4 |
| 20260902221523 | 92 | 27 | 1.0 | 6.0 | 0.00 | 0.00 | 0.00 | 59 | 1009.4 |
| 20260902220023 | 92 | 27 | 0.0 | 4.0 | 0.00 | 0.00 | 0.00 | 61 | 1009.2 |
| 20260902214546 | 92 | 27 | 2.0 | 4.0 | 0.00 | 0.00 | 0.00 | 61 | 1009.4 |
| 20260902213019 | 92 | 27 | 2.0 | 9.0 | 0.00 | 0.00 | 0.00 | 59 | 1009.3 |
| 20260902211518 | 92 | 26 | 2.0 | 13.0 | 0.00 | 0.00 | 0.00 | 57 | 1009.4 |
| 20260902210017 | 93 | 22 | 1.0 | 6.0 | 0.00 | 0.00 | 0.00 | 58 | 1009.7 |
| 20260902204513 | 93 | 22 | 1.0 | 5.0 | 0.00 | 0.00 | 0.00 | 59 | 1009.9 |
| 20260902203012 | 94 | 22 | 1.0 | 5.0 | 0.00 | 0.00 | 0.00 | 57 | 1009.9 |
| 20260902201512 | 95 | 22 | 1.0 | 4.0 | 0.00 | 0.00 | 0.00 | 55 | 1009.8 |
| 20260902200013 | 95 | 22 | 2.0 | 5.0 | 0.00 | 0.00 | 0.00 | 54 | 1010.0 |
| 20260902194507 | 95 | 22 | 1.0 | 4.0 | 0.00 | 0.00 | 0.00 | 55 | 1010.1 |
| 20260902193006 | 97 | 22 | 1.0 | 5.0 | 0.00 | 0.00 | 0.00 | 53 | 1010.3 |
| 20260902191504 | 96 | 22 | 2.0 | 6.0 | 0.00 | 0.00 | 0.00 | 54 | 1010.5 |
| 20260902190003 | 95 | 21 | 1.0 | 6.0 | 0.00 | 0.00 | 0.00 | 54 | 1010.5 |
| 20260902184558 | 96 | 21 | 1.0 | 4.0 | 0.00 | 0.00 | 0.00 | 53 | 1010.7 |